Weather History for Telluride, CO

Change the Weather History Date:

Wednesday, August 8, 2012

  Actual Average Record
Temperature  
Mean Temperature 66 °F -  
Max Temperature 77 °F 69 °F 77 °F (2012)
Min Temperature 55 °F 48 °F 46 °F (2001)
Cooling Degree Days 1    
Growing Degree Days 16 (Base 50)    
Moisture  
Dew Point 39 °F    
Average Humidity 39    
Maximum Humidity 59    
Minimum Humidity 19    
Precipitation  
Precipitation 0.00 in - - ()
Sea Level Pressure  
Sea Level Pressure 30.55 in    
Wind  
Wind Speed 4 mph (ESE)    
Max Wind Speed 12 mph    
Max Gust Speed 36 mph    
Visibility 10 miles    
Events Rain    
Averages and records for this station are not official NWS values.
T = Trace of Precipitation, MM = Missing Value Source: NWS Daily Summary

Daily Weather History Graph

Daily Weather History Graph

Search for Another Location

Airport:

Trip Planner

Search our weather history database for the weather conditions in past years. The results will help you decide how hot, cold, wet, or windy it might be!

Date:

Astronomy

Aug. 08, 2012 Rise Set
Actual Time 6:21 AM MDT 8:12 PM MDT
Civil Twilight 5:52 AM MDT 8:41 PM MDT
Nautical Twilight 5:17 AM MDT 9:15 PM MDT
Astronomical Twilight 4:40 AM MDT 9:52 PM MDT
Moon 11:37 PM MDT (8/8) 1:01 PM MDT (8/8)
Length of Visible Light 14h 48m
Length of Day
13h 51m
Waning Gibbous, 60% of the Moon is Illuminated
Aug 8
Waning Gibbous
Aug 9
Last Quarter
Aug 17
New
Aug 24
First Quarter
Aug 31
Full

Hourly Weather History & Observations

Time (MDT) Temp. Dew Point Humidity Pressure Visibility Wind Dir Wind Speed Gust Speed Precip Events Conditions
12:15 AM 59.0 °F 42.8 °F 55% 30.54 in 10.0 mi ESE 4.6 mph - N/A   Clear
12:35 AM 59.0 °F 42.8 °F 55% 30.55 in 10.0 mi ESE 5.8 mph - N/A   Clear
12:55 AM 59.0 °F 42.8 °F 55% 30.55 in 10.0 mi ESE 6.9 mph - N/A   Clear
1:15 AM 59.0 °F 42.8 °F 55% 30.54 in 10.0 mi SE 3.5 mph - N/A   Clear
1:35 AM 57.2 °F 42.8 °F 59% 30.54 in 10.0 mi Calm Calm - N/A   Clear
1:55 AM 57.2 °F 42.8 °F 59% 30.53 in 10.0 mi ESE 8.1 mph - N/A   Clear
2:15 AM 57.2 °F 41.0 °F 55% 30.53 in 10.0 mi ESE 6.9 mph - N/A   Clear
2:35 AM 57.2 °F 41.0 °F 55% 30.53 in 10.0 mi ESE 6.9 mph - N/A   Clear
2:55 AM 57.2 °F 41.0 °F 55% 30.53 in 10.0 mi ESE 6.9 mph - N/A   Clear
3:15 AM 57.2 °F 41.0 °F 55% 30.53 in 10.0 mi ESE 6.9 mph - N/A   Clear
3:35 AM 55.4 °F 41.0 °F 58% 30.53 in 10.0 mi East 5.8 mph - N/A   Clear
3:55 AM 55.4 °F 41.0 °F 58% 30.53 in 10.0 mi East 5.8 mph - N/A   Clear
4:15 AM 57.2 °F 39.2 °F 51% 30.53 in 10.0 mi ESE 3.5 mph - N/A   Clear
4:35 AM 55.4 °F 41.0 °F 58% 30.53 in 10.0 mi ESE 5.8 mph - N/A   Clear
4:55 AM 55.4 °F 39.2 °F 54% 30.54 in 10.0 mi ESE 4.6 mph - N/A   Clear
5:15 AM 55.4 °F 41.0 °F 58% 30.55 in 10.0 mi SE 6.9 mph - N/A   Clear
5:35 AM 55.4 °F 39.2 °F 54% 30.55 in 10.0 mi ESE 6.9 mph - N/A   Clear
5:55 AM 55.4 °F 39.2 °F 54% 30.55 in 10.0 mi East 3.5 mph - N/A   Clear
6:15 AM 55.4 °F 37.4 °F 51% 30.55 in 10.0 mi SE 5.8 mph - N/A   Clear
6:35 AM 55.4 °F 37.4 °F 51% 30.56 in 10.0 mi ESE 5.8 mph - N/A   Clear
6:55 AM 55.4 °F 39.2 °F 54% 30.56 in 10.0 mi ESE 6.9 mph - N/A   Clear
7:15 AM 55.4 °F 39.2 °F 54% 30.57 in 10.0 mi Calm Calm - N/A   Clear
7:35 AM 55.4 °F 41.0 °F 58% 30.58 in 10.0 mi Calm Calm - N/A   Clear
7:55 AM 59.0 °F 39.2 °F 48% 30.58 in 10.0 mi Calm Calm - N/A   Clear
8:15 AM 60.8 °F 39.2 °F 45% 30.58 in 10.0 mi East 3.5 mph - N/A   Clear
8:35 AM 60.8 °F 42.8 °F 52% 30.58 in 10.0 mi Calm Calm - N/A   Clear
8:55 AM 62.6 °F 41.0 °F 45% 30.59 in 10.0 mi Calm Calm - N/A   Clear
9:15 AM 64.4 °F 39.2 °F 40% 30.59 in 10.0 mi Calm Calm - N/A   Clear
9:35 AM 66.2 °F 41.0 °F 40% 30.59 in 10.0 mi Calm Calm - N/A   Clear
9:55 AM 68.0 °F 42.8 °F 40% 30.59 in 10.0 mi Calm Calm - N/A   Clear
10:15 AM 69.8 °F 41.0 °F 35% 30.59 in 10.0 mi Calm Calm - N/A   Clear
10:35 AM 71.6 °F 35.6 °F 27% 30.59 in 10.0 mi Calm Calm - N/A   Clear
10:55 AM 71.6 °F 32.0 °F 23% 30.59 in 10.0 mi Calm Calm - N/A   Clear
11:15 AM 73.4 °F 35.6 °F 25% 30.59 in 10.0 mi West 3.5 mph - N/A   Clear
11:35 AM 73.4 °F 33.8 °F 23% 30.59 in 10.0 mi SSW 4.6 mph - N/A   Clear
11:55 AM 73.4 °F 33.8 °F 23% 30.59 in 10.0 mi WSW 6.9 mph - N/A   Clear
12:15 PM 75.2 °F 33.8 °F 22% 30.58 in 10.0 mi NNW 3.5 mph - N/A   Clear
12:35 PM 77.0 °F 32.0 °F 19% 30.57 in 10.0 mi SSW 9.2 mph - N/A   Clear
12:55 PM 73.4 °F 35.6 °F 25% 30.57 in 10.0 mi Calm Calm - N/A   Scattered Clouds
1:15 PM 77.0 °F 35.6 °F 22% 30.57 in 10.0 mi WNW 4.6 mph - N/A   Scattered Clouds
1:35 PM 77.0 °F 35.6 °F 22% 30.56 in 10.0 mi WNW 4.6 mph - N/A   Clear
1:55 PM 77.0 °F 37.4 °F 24% 30.55 in 10.0 mi North 4.6 mph - N/A   Scattered Clouds
2:15 PM 75.2 °F 37.4 °F 25% 30.55 in 10.0 mi West 5.8 mph - N/A   Scattered Clouds
2:35 PM 73.4 °F 35.6 °F 25% 30.55 in 10.0 mi Calm Calm - N/A   Scattered Clouds
2:55 PM 77.0 °F 35.6 °F 22% 30.54 in 10.0 mi ENE 3.5 mph - N/A   Scattered Clouds
3:15 PM 77.0 °F 35.6 °F 22% 30.53 in 10.0 mi ENE 3.5 mph - N/A   Scattered Clouds
3:35 PM 73.4 °F 37.4 °F 27% 30.53 in 10.0 mi Calm Calm - N/A   Mostly Cloudy
3:55 PM 73.4 °F 37.4 °F 27% 30.53 in 10.0 mi Calm Calm - N/A   Scattered Clouds
4:15 PM 75.2 °F 33.8 °F 22% 30.51 in 10.0 mi Calm Calm - N/A   Clear
4:35 PM 77.0 °F 33.8 °F 21% 30.51 in 10.0 mi Calm Calm - N/A   Clear
5:15 PM 77.0 °F 33.8 °F 21% 30.50 in 10.0 mi West 5.8 mph - N/A   Mostly Cloudy
5:35 PM 75.2 °F 32.0 °F 21% 30.51 in 10.0 mi WNW 5.8 mph - N/A   Overcast
5:55 PM 77.0 °F 35.6 °F 22% 30.51 in 10.0 mi NNW 3.5 mph - N/A   Mostly Cloudy
6:15 PM 77.0 °F 32.0 °F 19% 30.51 in 10.0 mi NW 5.8 mph - N/A   Overcast
6:35 PM 73.4 °F 37.4 °F 27% 30.53 in 10.0 mi SE 6.9 mph 24.2 mph N/A   Mostly Cloudy
6:55 PM 69.8 °F 37.4 °F 31% 30.53 in 10.0 mi SSE 11.5 mph 35.7 mph N/A   Overcast
7:15 PM 68.0 °F 39.2 °F 35% 30.55 in 10.0 mi NNW 6.9 mph - N/A Rain Light Rain
7:35 PM 68.0 °F 37.4 °F 33% 30.55 in 10.0 mi North 3.5 mph - N/A   Mostly Cloudy
7:55 PM 68.0 °F 37.4 °F 33% 30.55 in 10.0 mi Calm Calm - N/A   Mostly Cloudy
8:15 PM 68.0 °F 39.2 °F 35% 30.55 in 10.0 mi Calm Calm - N/A   Scattered Clouds
8:35 PM 66.2 °F 41.0 °F 40% 30.55 in 10.0 mi SE 4.6 mph - N/A   Scattered Clouds
8:55 PM 64.4 °F 41.0 °F 42% 30.55 in 10.0 mi East 3.5 mph - N/A   Scattered Clouds
9:15 PM 64.4 °F 42.8 °F 45% 30.55 in 10.0 mi East 3.5 mph - N/A   Scattered Clouds
9:35 PM 66.2 °F 41.0 °F 40% 30.56 in 10.0 mi ESE 5.8 mph - N/A   Scattered Clouds
9:55 PM 64.4 °F 41.0 °F 42% 30.57 in 10.0 mi SE 4.6 mph - N/A   Overcast
10:15 PM 64.4 °F 39.2 °F 40% 30.57 in 10.0 mi Calm Calm - N/A   Overcast
10:35 PM 66.2 °F 39.2 °F 37% 30.57 in 10.0 mi Calm Calm - N/A   Scattered Clouds
10:55 PM 66.2 °F 41.0 °F 40% 30.57 in 10.0 mi Calm Calm - N/A   Mostly Cloudy
11:15 PM 64.4 °F 39.2 °F 40% 30.57 in 10.0 mi Calm Calm - N/A   Overcast
11:35 PM 66.2 °F 41.0 °F 40% 30.56 in 10.0 mi SSE 3.5 mph - N/A   Overcast
11:55 PM 64.4 °F 41.0 °F 42% 30.57 in 10.0 mi SE 6.9 mph - N/A   Scattered Clouds